Wind_Speed
44 42 41 41 42 42 41 39 39 40 40 38 39 40 41 40 38 36 34 32 32 33 39 46 52 60 67 68 68 66 63 63 63 58 55 58 56 53
35 33 32 32 31 30 30 30 31 29 25 22 25 28 28 29 32 29 26 28 27 27 29 32 36 42 49 54 58 58 58 58 58 55 52 50 49 49
32 30 28 26 25 25 24 24 24 22 21 18 19 20 21 22 21 19 22 24 23 25 25 24 25 28 33 40 48 53 54 54 54 48 44 43 45 47
33 30 27 25 26 27 26 24 24 20 17 17 13 12 14 15 15 18 21 16 21 21 19 21 26 27 30 42 47 47 45 45 46 43 42 43 44 44
31 29 27 25 25 21 18 17 18 19 17 17 14 14 15 14 16 16 15 17 17 17 18 21 19 17 9 20 23 26 28 27 29 32 35 35 35 36
22 20 19 18 16 16 18 16 14 14 14 17 19 16 19 19 19 17 15 13 13 14 14 11 10 11 25 24 27 25 25 26 27 24 25 27 29 29
15 13 13 14 14 15 17 16 15 14 13 14 19 19 16 16 18 19 17 12 12 10 12 12 6 18 26 28 32 36 30 27 29 27 27 25 24 23
13 12 12 13 12 14 16 14 14 12 12 12 13 9 11 17 20 20 18 15 13 10 15 12 10 18 21 23 30 35 32 33 36 37 38 27 20 19
14 13 11 10 12 14 11 7 8 12 11 12 12 10 9 14 18 17 13 13 13 12 13 11 14 23 28 24 26 32 28 29 32 30 28 26 21 17
15 13 11 11 9 9 2 4 6 11 13 13 14 15 16 18 17 17 18 17 15 13 14 13 16 26 29 24 22 28 27 26 26 24 21 19 18 17
13 11 11 8 6 2 3 5 9 10 12 17 17 16 17 17 15 18 22 17 14 14 14 14 16 27 32 26 21 26 24 21 23 23 23 21 19 16
13 10 9 5 7 4 3 3 5 2 5 21 21 19 18 16 16 23 25 20 16 15 16 15 22 30 30 28 25 20 18 21 22 21 19 18 16 16
13 10 7 4 7 7 6 2 6 8 11 18 20 19 17 15 19 24 26 21 20 18 14 15 22 29 29 26 22 18 17 19 21 20 16 15 17 20
14 12 7 5 6 7 6 6 10 13 14 16 19 18 16 18 20 21 23 24 24 21 15 15 21 27 28 26 23 19 19 20 20 18 16 20 22 21
14 16 13 8 6 8 7 12 14 18 17 14 14 15 16 18 19 20 21 24 24 19 16 16 17 19 22 23 22 20 20 19 18 19 23 24 22 19
10 17 18 13 8 10 13 15 18 20 18 17 16 16 17 19 20 21 21 22 20 17 15 13 14 19 20 18 19 18 18 20 22 25 24 22 21 23
8 14 19 18 15 14 18 20 20 19 15 14 14 15 17 19 20 21 22 21 16 14 14 15 16 15 17 18 19 20 21 24 27 25 23 22 23 25
9 11 17 20 19 18 22 26 23 19 15 12 12 13 15 19 22 20 19 19 16 16 18 17 16 14 15 18 22 25 25 26 25 23 22 23 25 25
8 9 15 20 21 19 21 24 23 20 18 18 19 19 19 22 24 22 20 17 16 19 21 19 18 17 16 18 21 26 28 26 24 22 21 23 24 22
5 7 11 17 21 21 20 19 18 18 18 18 22 24 24 25 24 21 18 16 17 20 23 22 23 23 23 23 24 25 26 26 24 22 20 21 22 20
6 5 7 15 20 22 21 20 19 17 16 17 21 26 26 26 25 22 19 18 21 24 25 25 25 24 25 28 27 25 25 25 24 22 21 20 19 17
4 2 5 13 19 21 22 21 20 18 17 18 21 25 27 26 24 23 22 23 25 27 26 26 25 26 28 30 28 26 24 24 24 22 21 19 17 15
8 8 7 11 18 22 23 23 22 21 21 20 21 23 24 24 24 24 25 26 27 25 24 25 27 29 30 31 30 28 25 23 22 20 18 18 17 16
Wind_Direction
297 295 293 291 289 286 285 285 285 284 281 277 275 271 266 267 270 268 267 264 263 256 247 244 245 245 245 245 246 247 245 245 246 247 249 253 255 255
296 296 295 293 293 290 288 288 289 289 288 286 275 266 261 262 264 261 263 263 257 255 251 249 247 244 242 240 239 238 238 238 240 240 240 246 250 249
299 298 296 296 297 297 297 294 289 286 285 286 278 264 255 256 257 250 249 246 250 256 252 248 247 242 238 238 237 236 237 239 241 240 239 241 241 242
298 297 299 299 300 298 295 292 290 287 282 273 269 253 249 252 243 237 244 251 257 258 250 247 248 240 238 235 230 227 226 228 230 231 231 230 232 236
297 290 290 299 305 305 305 292 283 277 271 260 247 241 238 241 237 235 238 247 247 247 252 261 256 250 222 208 210 204 199 201 210 213 217 224 229 235
303 293 286 293 304 307 305 297 275 264 266 243 239 255 254 238 225 215 209 226 239 247 244 224 222 192 160 160 169 175 179 187 193 197 209 219 226 233
317 301 290 291 298 306 317 313 285 263 259 250 246 260 256 215 204 199 202 226 242 240 215 181 159 150 153 154 170 182 176 187 180 181 198 205 212 223
316 307 298 295 289 294 293 294 280 246 249 242 234 237 227 197 197 199 199 223 235 214 194 179 169 166 161 161 169 178 186 192 183 184 190 194 201 207
310 304 299 293 294 298 292 285 246 220 232 242 224 216 212 185 184 186 192 199 194 200 188 154 146 170 178 186 180 175 168 171 179 189 185 188 197 200
313 310 294 289 302 312 305 330 291 255 251 226 200 186 174 173 179 186 188 187 188 189 195 184 161 173 170 167 170 181 190 194 198 202 205 211 209 209
293 304 307 283 259 297 331 328 314 290 262 209 190 180 176 177 181 187 184 185 187 185 196 195 167 167 174 183 173 171 176 173 175 183 192 199 205 208
270 281 302 268 222 236 278 325 354 357 189 178 174 168 170 182 182 177 178 183 186 180 191 186 164 158 160 161 161 163 166 169 173 179 188 194 198 191
249 246 277 249 208 220 236 148 91 94 129 154 159 165 167 169 168 170 174 178 171 164 163 155 159 167 169 168 172 172 164 174 181 186 192 192 180 162
235 219 224 229 205 219 234 154 117 114 122 149 153 152 161 171 167 167 170 164 159 166 166 155 157 165 170 178 180 174 172 186 192 192 181 165 154 151
225 205 197 218 215 203 164 141 127 116 118 136 163 159 153 163 165 160 159 160 163 164 158 158 163 174 187 193 189 187 191 197 198 177 158 150 154 159
224 202 193 191 193 194 178 163 141 126 117 120 139 152 157 162 162 154 156 162 167 172 168 168 174 182 184 187 187 192 194 184 171 157 154 159 161 156
234 204 194 187 178 179 182 177 163 147 141 132 125 127 145 160 159 154 156 157 161 168 172 173 175 185 193 197 197 189 179 168 159 158 161 160 158 157
233 210 197 189 182 172 176 177 176 173 174 181 180 171 162 166 162 159 163 167 173 179 181 179 181 191 195 196 191 174 164 158 158 161 161 160 161 164
209 206 197 190 183 177 172 171 176 186 192 195 197 190 181 175 171 174 176 182 186 183 179 178 179 178 181 185 174 162 158 159 158 159 162 165 166 167
175 188 193 191 186 181 177 179 185 196 202 201 197 190 186 186 187 188 192 198 192 184 180 180 180 176 167 160 160 162 162 159 157 160 166 172 173 171
146 164 182 188 187 183 181 179 180 186 188 183 183 187 190 192 194 198 201 199 191 185 182 181 177 169 161 158 161 164 165 162 161 163 171 178 180 181
108 159 172 182 186 183 180 179 177 175 176 173 172 179 186 190 190 193 192 188 185 182 181 178 172 166 165 164 164 167 169 169 169 172 173 178 184 191
86 96 127 166 181 184 182 181 179 173 170 168 165 167 173 176 176 178 181 182 180 177 175 174 172 171 172 171 168 169 172 176 176 176 178 181 186 190
Height
5589 5584 5579 5576 5572 5570 5568 5567 5565 5564 5565 5566 5564 5564 5566 5569 5570 5569 5572 5575 5578 5579 5581 5585 5590 5597 5605 5614 5624 5634 5644 5651 5659 5665 5671 5677 5683 5691
5580 5575 5571 5567 5563 5561 5559 5557 5556 5553 5552 5553 5553 5552 5556 5558 5558 5560 5564 5566 5566 5566 5568 5571 5575 5580 5587 5596 5608 5618 5628 5638 5645 5652 5658 5665 5673 5681
5570 5566 5563 5559 5557 5554 5552 5550 5549 5547 5546 5547 5547 5547 5549 5551 5551 5554 5557 5558 5559 5560 5561 5563 5567 5572 5577 5585 5595 5605 5616 5625 5633 5641 5648 5656 5663 5669
5562 5559 5555 5552 5549 5547 5545 5543 5542 5541 5541 5542 5543 5544 5545 5546 5548 5550 5551 5553 5554 5555 5556 5558 5562 5566 5571 5573 5582 5592 5602 5611 5620 5630 5638 5646 5652 5657
5552 5550 5548 5546 5543 5540 5538 5536 5535 5535 5536 5538 5538 5539 5541 5544 5545 5547 5549 5551 5552 5554 5554 5554 5555 5557 5559 5564 5575 5584 5594 5605 5615 5624 5632 5640 5647 5653
5546 5543 5541 5540 5538 5536 5534 5532 5530 5530 5531 5532 5533 5535 5537 5539 5541 5544 5547 5550 5551 5553 5554 5552 5551 5553 5558 5565 5575 5584 5596 5606 5616 5622 5630 5636 5641 5647
5542 5539 5537 5536 5534 5532 5531 5528 5526 5526 5526 5527 5528 5530 5531 5534 5538 5542 5546 5549 5550 5552 5553 5553 5554 5555 5560 5568 5576 5585 5594 5603 5612 5619 5625 5632 5637 5642
5540 5537 5535 5533 5532 5530 5528 5524 5522 5521 5522 5523 5524 5526 5528 5531 5536 5540 5545 5549 5550 5552 5553 5556 5560 5562 5566 5572 5582 5592 5598 5604 5612 5619 5624 5630 5636 5639
5537 5535 5533 5531 5530 5527 5524 5521 5519 5518 5520 5521 5523 5525 5527 5530 5535 5540 5544 5548 5550 5552 5554 5557 5561 5566 5571 5575 5584 5593 5600 5606 5612 5618 5623 5629 5633 5636
5534 5531 5529 5528 5527 5524 5521 5520 5518 5517 5517 5519 5521 5524 5527 5531 5535 5539 5543 5546 5550 5553 5555 5558 5562 5567 5574 5579 5586 5593 5599 5605 5611 5617 5623 5628 5630 5632
5530 5527 5525 5524 5524 5522 5520 5518 5516 5515 5515 5517 5520 5524 5528 5531 5535 5539 5542 5547 5551 5553 5555 5558 5563 5569 5576 5582 5589 5594 5601 5607 5612 5617 5621 5625 5627 5629
5524 5523 5522 5521 5521 5521 5519 5518 5516 5513 5512 5515 5520 5524 5527 5531 5533 5537 5542 5547 5551 5555 5558 5563 5567 5573 5579 5585 5592 5597 5602 5607 5612 5617 5621 5623 5625 5626
5518 5518 5519 5518 5518 5518 5518 5519 5517 5515 5516 5518 5522 5526 5529 5532 5534 5538 5543 5548 5552 5557 5562 5566 5570 5576 5583 5589 5594 5599 5604 5609 5613 5616 5618 5619 5622 5625
5512 5513 5515 5515 5515 5516 5517 5519 5518 5518 5518 5521 5525 5528 5531 5534 5537 5541 5545 5550 5554 5559 5564 5568 5573 5578 5583 5589 5595 5599 5604 5608 5611 5613 5614 5617 5621 5626
5506 5508 5510 5512 5512 5514 5516 5518 5520 5520 5521 5524 5527 5530 5533 5536 5540 5543 5547 5552 5557 5562 5566 5571 5576 5581 5585 5589 5594 5599 5602 5605 5607 5609 5613 5618 5623 5627
5501 5503 5506 5508 5510 5511 5515 5518 5521 5522 5524 5527 5529 5532 5535 5539 5542 5546 5551 5556 5561 5566 5570 5574 5578 5582 5586 5589 5593 5596 5599 5602 5605 5610 5614 5619 5623 5627
5497 5498 5501 5504 5508 5510 5512 5517 5521 5524 5526 5529 5532 5535 5538 5542 5545 5549 5553 5558 5563 5567 5571 5575 5578 5581 5585 5587 5590 5594 5597 5601 5606 5611 5615 5619 5624 5628
5493 5495 5497 5500 5504 5507 5511 5515 5520 5524 5527 5530 5533 5536 5540 5544 5547 5551 5555 5559 5563 5567 5571 5574 5577 5580 5583 5586 5589 5593 5598 5603 5608 5612 5616 5620 5625 5629
5490 5492 5494 5497 5502 5505 5509 5513 5518 5522 5526 5529 5532 5536 5540 5544 5548 5552 5557 5560 5564 5567 5570 5573 5577 5581 5585 5588 5591 5594 5600 5605 5610 5614 5619 5623 5626 5630
5489 5491 5493 5496 5500 5504 5508 5512 5516 5520 5522 5526 5529 5534 5539 5543 5547 5552 5556 5560 5563 5566 5569 5573 5577 5581 5585 5590 5595 5599 5603 5607 5612 5616 5621 5625 5628 5631
5489 5491 5492 5495 5498 5502 5506 5511 5515 5518 5521 5523 5527 5532 5537 5541 5546 5551 5555 5558 5562 5566 5570 5574 5578 5582 5586 5591 5597 5602 5606 5610 5614 5618 5623 5626 5629 5632
5491 5491 5492 5494 5497 5501 5505 5510 5514 5518 5521 5523 5526 5531 5536 5541 5546 5550 5553 5558 5562 5566 5570 5574 5578 5583 5588 5593 5598 5604 5608 5612 5615 5619 5623 5626 5629 5632
5493 5493 5493 5494 5497 5501 5505 5509 5514 5518 5522 5525 5527 5531 5536 5541 5545 5550 5554 5558 5562 5567 5572 5576 5580 5585 5590 5595 5599 5604 5609 5613 5617 5620 5623 5625 5628 5630